www.pogodaiklimat.ru

ПОГОДА в Луисвилле, KY

  • Прогноз погоды в Луисвилле
  • Монитор погоды в Луисвилле
  • Климат в Луисвилле

АРХИВ ПОГОДЫ в Луисвилле

Время (UTC), дата Ветер
(напр.,м/с)
 
Видим.   Явления Облачность Т
(С)
Тd
(С)
f
(%)
Тe
(С)
Тes
(С)
Комфортность

P
(гПа)

Po
(гПа)
Тmin
(С)
Tmax
(С)
R
(мм)
SD
(см)
09:53 24.05   11 км    5/5 1380 м  +21.1  +19.4  90  +26  +26  душно  1019.1  999.6         
10:53 24.05   16 км    8/0 2850 м
[средняя] 
+23.3  +20.6  85  +31  +31  очень
душно 
1019.8  1000.6  +21.1  +23.3     
11:53 24.05   16 км    ясно  +25.0  +20.6  77  +31  +33  очень
душно 
1020.0  1000.6         
12:53 24.05 ЮЗ  16 км    ясно  +27.2  +21.7  72  +35  +39  очень
душно 
1020.1  1000.6         
13:53 24.05 ЮЗ  16 км    ясно  +28.9  +20.6  61  +36  +43  очень
душно 
1019.9  1000.6         
14:53 24.05 З  5
{9} 
16 км    2/2 1410 м  +30.0  +18.9  51  +35  +39  очень
душно 
1019.7  1000.3         
15:53 24.05 З  16 км    2/2 1500 м  +30.6  +18.3  48  +35  +40  очень
душно 
1019.5  999.9         
16:53 24.05 З  3
{8} 
16 км    ясно  +31.7  +18.3  45  +36  +51  опасность
солнечного
удара 
1019.2  999.9  +23.3  +31.7     
17:53 24.05 ЮЗ  16 км    8/8 1800 м
[средняя] 
+30.0  +17.8  48  +34  +37  очень
душно 
1018.8  999.6         
18:53 24.05 ЮЗ  6
{9} 
16 км    5/0 2100 м
[средняя] 
+31.7  +17.8  44  +36  +40  очень
душно 
1018.7  999.3         
19:53 24.05 ЮЗ  16 км    2/0 2100 м
[средняя] 
+31.7  +17.2  42  +35  +40  очень
душно 
1018.5  999.3         
20:53 24.05 ЮЗ  16 км    5/0 2250 м
[средняя] 
+31.7  +17.2  42  +35  +39  очень
душно 
1018.1  998.9         
21:53 24.05 ЮЗ  16 км    ясно  +30.6  +17.8  46  +35  +40  очень
душно 
1017.7  998.3         
22:53 24.05 ЮЗ  16 км    ясно  +30.0  +17.2  46  +34  +36  очень
душно 
1016.9  997.6  +29.4  +32.2     
23:53 24.05 Ю  16 км    ясно  +27.8  +16.7  51  +31  +32  душно  1016.3  997.0         
00:53 25.05 Ю  16 км    ясно  +26.7  +17.2  56  +31  +31  душно  1016.2  997.0         
01:53 25.05 Ю  16 км    ясно  +25.6  +17.2  60  +30  +30  душно  1016.1  997.0         
02:53 25.05 Ю  16 км    ясно  +24.4  +17.2  64  +28  +28  душно  1016.5  997.3         
03:53 25.05 ЮЗ  16 км    ясно  +23.9  +17.2  66  +28  +28  душно  1017.0  997.6         
04:53 25.05 Ю  16 км    10/0 2850 м
[средняя] 
+22.8  +17.2  71  +28  +28  душно  1017.2  997.9  +22.2  +30.0     
05:53 25.05 Ю  16 км    ясно  +22.8  +17.2  71  +28  +28  душно  1017.2  997.9         
06:53 25.05   16 км    2/2 1800 м  +21.1  +17.2  78  +25  +25  комфорт  1016.9  997.6         
07:53 25.05   16 км    5/2 1650 м
[средняя] 
+21.1  +17.2  78  +25  +25  комфорт  1016.8  997.6         
08:53 25.05 Ю  16 км    8/0 2700 м
[средняя] 
+22.2  +17.8  76  +27  +27  душно  1016.6  997.3         
09:53 25.05 Ю  16 км    8/0 2700 м
[средняя] 
+22.2  +18.3  79  +27  +27  душно  1017.3  997.9         
10:53 25.05 Ю  16 км    2/0 2850 м
[средняя] 
+24.4  +19.4  74  +30  +30  очень
душно 
1018.0  998.6  +21.1  +24.4     
11:53 25.05 ЮЗ  16 км    ясно  +25.6  +20.0  71  +31  +32  очень
душно 
1018.6  999.3         
12:53 25.05 ЮЗ  4
{9} 
16 км    ясно  +27.8  +20.0  63  +34  +37  очень
душно 
1018.6  999.3         
13:53 25.05 ЮЗ  16 км    ясно  +28.9  +19.4  57  +35  +36  очень
душно 
1018.2  998.9         
14:53 25.05 ЮЗ  7
{12} 
16 км    ясно  +30.0  +18.9  51  +35  +38  очень
душно 
1017.8  998.3         
15:53 25.05 ЮЗ  7
{11} 
16 км    ясно  +30.6  +17.8  46  +35  +38  очень
душно 
1017.9  998.6         
16:53 25.05 ЮЗ  8
{15} 
16 км    ясно  +31.1  +15.6  39  +34  +36  душно  1017.6  998.3  +24.4  +31.1     
17:53 25.05 ЮЗ  7
{12} 
16 км    ясно  +31.1  +15.6  39  +34  +37  душно  1017.0  997.6         
18:53 25.05 ЮЗ  7
{12} 
16 км    ясно  +31.1  +16.1  40  +34  +38  душно  1016.9  997.6         
19:53 25.05 ЮЗ  7
{11} 
16 км    5/5 1800 м  +30.6  +17.8  46  +35  +36  очень
душно 
1016.8  997.3         
20:53 25.05 ЮЗ  16 км    5/5 1950 м  +30.0  +17.2  46  +34  +35  очень
душно 
1017.0  997.6         
21:53 25.05 ЮЗ  16 км    2/2 1650 м  +30.0  +17.8  48  +34  +36  очень
душно 
1017.3  997.9         
22:53 25.05 ЮЗ  16 км    ясно  +29.4  +17.8  50  +34  +36  очень
душно 
1017.1  997.9  +28.9  +31.7     
23:53 25.05 Ю  16 км    ясно  +28.3  +17.8  53  +33  +33  очень
душно 
1017.0  997.6         
00:53 26.05 Ю  16 км    ясно  +26.7  +17.8  58  +31  +31  душно  1016.9  997.6         
01:53 26.05 Ю  16 км    8/8 1800 м  +26.7  +17.8  58  +31  +31  душно  1017.2  997.9         
02:53 26.05 Ю  16 км    8/8 1500 м  +26.1  +17.2  58  +30  +30  душно  1017.3  997.9         
03:53 26.05 Ю  16 км    ясно  +25.6  +17.2  60  +30  +30  душно  1017.4  997.9         
04:53 26.05 Ю  16 км    ясно  +23.9  +17.2  66  +28  +28  душно  1017.4  997.9  +23.9  +29.4     
05:53 26.05 Ю  16 км    ясно  +23.9  +17.2  66  +28  +28  душно  1017.2  997.9         
06:53 26.05 ЮВ  16 км    ясно  +21.7  +17.2  76  +26  +26  душно  1017.1  997.9         
07:53 26.05 Ю  16 км    ясно  +22.8  +17.2  71  +28  +28  душно  1017.3  997.9         
08:53 26.05 ЮВ  16 км    ясно  +21.7  +17.2  76  +26  +26  душно  1017.7  998.3         

 

Местоположение метеостанции Bowman Field Airport: широта 38.2278 долгота -85.6636 высота над уровнем моря 166 м.

В архиве по умолчанию представлена погода в Луисвилле за последние 1-2 суток. Обновление информации о фактической погоде в базе происходит ежечасно! Архивные данные за месяц целиком и за предыдущие месяцы Вы можете получить, выбрав интересующий диапазон дат из раскрывающегося списка и нажав кнопку "Ввод!".

Внимание! Архив погоды МЕТАР в базе сайта хранится не более 60 дней. Нет смысла пытаться выбрать более раннюю дату.

Внимание! Время в таблицах - всемирное. Для получения местного времени необходимо прибавить поправку, которая в Луисвилле равна -5 ч.

Ветер - указаны скорость ветра в м/с и направление, откуда дует ветер: С - северный, СВ - северо-восточный, В - восточный, ЮВ - юго-восточный, Ю - южный, ЮЗ - юго-западный, З - западный, СЗ - северо-западный.
Видимость - горизонтальная дальность видимости в метрах или километрах. При видимости от 1 до 10 км при отсутствии осадков обычно наблюдается дымка, при ухудшении видимости до 1 км и менее - туман. В сухую погоду видимость может ухудшаться дымом, пылью или мглою.
Атмосферные явления - указаны явления, наблюдавшиеся в указанный момент времени.
Облачность - указаны через наклонную черту верхняя и нижняя облачность в баллах и высота нижней границы облаков в метрах. Внимание: облачность, как и прочие метеорологические величины в США измеряются автоматическими метеостанциями. Указанные значения в баллах носят условный характер и показывают процент времени, в течение которого, в среднем, лазерный луч высотомера отражался от облаков обратно.
T - Температура воздуха - температура, измеренная на высоте 2 м над землей.
Td - Температура точки росы - температура, при понижении до которой содержащийся в воздухе водяной пар достигнет насыщения.
f - Относительная влажность воздуха - влажноcть воздуха, измеренная на высоте 2 м над землей.
Te - Эффективная температура - температура, которую ощущает одетый по сезону человек в тени. Характеристика душности погоды. При расчете учитывается влияние влажности воздуха и скорости ветра на теплоощущения человека.
Tes - Эффективная температура на солнце - температура, которую ощущает человек, с поправкой на солнечный нагрев. Характеристика знойности погоды. Зависит от высоты солнца над горизонтом, облачности и скорости ветра. Ночью, в пасмурную погоду, а также при ветре 12 м/с и более поправка равна нулю.
P - Атмосферное давление - приведенное к уровню моря атмосферное давление.
Po - Атмосферное давление - измеренное на уровне метеостанции атмосферное давление.
Tmin - Минимальная температура - минимум температуры воздуха на высоте 2 м над землей.
Tmax - Максимальная температура - максимум температуры воздуха на высоте 2 м над землей.
R - Количество осадков - Количество выпавших осадков за 3 или 6 часов, мм.
SD - Снежный покров - Высота снежного покрова, см.